Tracking 19242 objects as of 15-Aug-2018
HD Live streaming from Space Station
objects crossing your sky now

FENGYUN 1C DEB

Track FENGYUN 1C DEB now!
10-day predictions


NORAD ID: 29886
Int'l Code: 1999-025GG
Perigee: 752.9 km
Apogee: 812.5 km
Inclination: 99.2 °
Period: 100.4 minutes
Semi major axis: 7153 km
RCS: 0.0337 m2 (small)
Launch date: May 10, 1999
Source: People's Republic of China (PRC)
Launch site: Taiyaun Space Center, China (TSC)

Note: This is SATELLITE DEBRIS
aabbcc
Your satellite tracking list
Your tracking list is empty




NASA's NSSDC Master Catalog

Two Line Element Set (TLE):
1 29886U 99025GG  18226.56813435  .00001041  00000-0  38036-3 0  9991
2 29886  99.2156 107.0811 0041706  79.2027 346.5000 14.34851375601028
Source of the keplerian elements: AFSPC